"2009-12-10 00:00:00",1489246,3.08,38.05,6.381,0.927,-5.82,95.46903,-12.23,-10.83,36.94,0,108.8,13.91,-11.52,0.0
"2009-12-10 00:00:30",1489247,2.687,50.61,6.243,1.142,-7.309,95.46294,-12.25,-10.95,36.74,0,108.8,13.91,-11.54,12.6
"2009-12-10 00:01:00",1489248,2.597,62.17,3.867,1.033,-7.777,95.46131,-12.25,-10.92,36.73,0,108.8,13.91,-11.54,24.2
"2009-12-10 00:01:30",1489249,4.279,63.67,8.48,1.131,-6.339,95.4451,-12.29,-11.03,36.63,0,108.8,13.91,-11.58,25.7
"2009-12-10 00:02:00",1489250,2.987,64.43,5.031,1.391,-6.287,95.43276,-12.32,-10.93,37.02,0,108.8,13.91,-11.61,26.4
"2009-12-10 00:02:30",1489251,2.344,56.55,6.81,0.794,-6.434,95.43021,-12.33,-10.89,37.44,0,108.8,13.91,-11.62,18.5
"2009-12-10 00:03:00",1489252,1.868,49.39,8.02,0.84,-8.18,95.43129,-12.33,-11,37.62,0,108.8,13.91,-11.62,11.4
"2009-12-10 00:03:30",1489253,2.678,30.11,21.68,1.11,-7.109,95.42735,-12.34,-11.02,37.51,0,108.8,13.91,-11.63,352.1
"2009-12-10 00:04:00",1489254,0.816,13.6,33.09,0.967,-8.49,95.40459,-12.39,-11.11,37.38,0,108.8,13.91,-11.69,335.6
"2009-12-10 00:04:30",1489255,1.494,20.22,52.3,1.39,-8.22,95.41396,-12.37,-11.17,37.61,0,108.8,13.91,-11.66,342.2
"2009-12-10 00:05:00",1489256,2.153,170.1,16.69,1.335,-9.01,95.39806,-12.41,-11.1,39.89,0,108.8,13.91,-11.70,132.1
"2009-12-10 00:05:30",1489257,3.287,150.2,3.393,0.905,-8.65,95.3506,-12.53,-11.03,42.53,0,108.7,13.91,-11.82,112.2
"2009-12-10 00:06:00",1489258,2.957,134.2,11.17,1.122,-8.25,95.32901,-12.59,-11.15,43.03,0,108.8,13.91,-11.88,96.2
"2009-12-10 00:06:30",1489259,4.25,46.96,31.82,0.919,-4.458,95.32901,-12.59,-11.2,42.59,0,108.8,13.91,-11.88,9.0
"2009-12-10 00:07:00",1489260,3.815,17.8,8.5,0.915,-4.607,95.32504,-12.6,-11.2,41.82,0,108.8,13.91,-11.89,339.8
"2009-12-10 00:07:30",1489261,4.064,29.3,7.275,1.024,-5.106,95.31026,-12.63,-11.25,41.42,0,108.8,13.91,-11.93,351.3
"2009-12-10 00:08:00",1489262,3.696,33.07,6.254,1.1,-5.405,95.30202,-12.65,-11.26,41.12,0,108.8,13.91,-11.95,355.1
"2009-12-10 00:08:30",1489263,3.69,36.61,18.01,0.706,-5.049,95.30429,-12.65,-11.25,40.98,0,108.8,13.91,-11.94,358.6
"2009-12-10 00:09:00",1489264,1.713,121.7,14.76,1.013,-8.79,95.3276,-12.59,-11.31,41.29,0,108.8,13.91,-11.88,83.7
"2009-12-10 00:09:30",1489265,2.021,128.6,7.356,1.174,-9.96,95.30087,-12.66,-11.38,42.84,0,108.8,13.91,-11.95,90.6
"2009-12-10 00:10:00",1489266,1.505,136.3,7.42,1.134,-9.89,95.29519,-12.67,-11.41,43.18,0,108.8,13.91,-11.96,98.3
"2009-12-10 00:10:30",1489267,2.102,95.3,27.66,1.266,-8.34,95.29736,-12.67,-11.36,43.08,0,108.8,13.92,-11.96,57.3
"2009-12-10 00:11:00",1489268,3.826,50.94,11.26,1.285,-5.537,95.29784,-12.66,-11.35,42.59,0,108.8,13.92,-11.96,12.9
"2009-12-10 00:11:30",1489269,5.482,51.76,7.986,0.604,-3.856,95.29971,-12.66,-11.28,42.36,0,108.8,13.93,-11.95,13.8
"2009-12-10 00:12:00",1489270,5.28,32.95,7.361,0.837,-3.873,95.30141,-12.66,-11.3,42.18,0,108.8,13.93,-11.95,355.0
"2009-12-10 00:12:30",1489271,4.715,34.54,5.122,0.775,-4.355,95.30303,-12.65,-11.3,41.96,0,108.8,13.92,-11.94,356.5
"2009-12-10 00:13:00",1489272,3.357,33.85,11.1,1.018,-4.845,95.31065,-12.63,-11.31,41.62,0,108.8,13.92,-11.93,355.9
"2009-12-10 00:13:30",1489273,2.955,19.07,17.09,0.835,-6.501,95.3251,-12.6,-11.32,41.42,0,108.8,13.92,-11.89,341.1
"2009-12-10 00:14:00",1489274,2.926,11.86,13,1.043,-8.05,95.33355,-12.57,-11.38,41.35,0,108.7,13.92,-11.87,333.9
"2009-12-10 00:14:30",1489275,4.246,351.9,23.72,1.187,-6.34,95.34169,-12.55,-11.4,41.31,0,108.8,13.92,-11.85,313.9
"2009-12-10 00:15:00",1489276,5.257,341,13.66,0.539,-4.712,95.34581,-12.54,-11.28,41.62,0,108.7,13.93,-11.84,303.0
"2009-12-10 00:15:30",1489277,3.668,8.72,14.45,1.071,-4.074,95.34718,-12.54,-11.21,41.84,0,108.7,13.93,-11.83,330.7
"2009-12-10 00:16:00",1489278,3.27,1.087,30.18,0.741,-4.502,95.38203,-12.45,-11.19,42.01,0,108.7,13.93,-11.74,323.1
"2009-12-10 00:16:30",1489279,3.573,3.497,14.82,1.431,-5.321,95.42022,-12.35,-11.21,42.02,0,108.7,13.93,-11.65,325.5
"2009-12-10 00:17:00",1489280,5.207,339.3,5.997,1.217,-6.477,95.42404,-12.34,-11.27,41.85,0,108.7,13.93,-11.64,301.3
"2009-12-10 00:17:30",1489281,4.879,348.4,14.15,0.991,-5.753,95.4254,-12.34,-11.19,41.91,0,108.7,13.93,-11.63,310.4
"2009-12-10 00:18:00",1489282,4.414,12.22,10.43,0.849,-4.45,95.43105,-12.33,-11.09,41.84,0,108.7,13.93,-11.62,334.2
"2009-12-10 00:18:30",1489283,5.579,30.66,4.292,0.731,-4.632,95.45347,-12.27,-11.06,41.65,0,108.7,13.93,-11.56,352.7
"2009-12-10 00:19:00",1489284,5.574,41.7,3.371,0.709,-4.659,95.46165,-12.25,-11.03,41.53,0,108.7,13.93,-11.54,3.7
"2009-12-10 00:19:30",1489285,5.236,29.64,13.7,0.877,-4.291,95.46644,-12.24,-11.02,41.44,0,108.7,13.93,-11.53,351.6
"2009-12-10 00:20:00",1489286,5.443,14.31,17.08,1.406,-4.194,95.49084,-12.17,-10.98,41.57,0,108.7,13.93,-11.47,336.3
"2009-12-10 00:20:30",1489287,4.586,31.79,7.373,0.703,-4.617,95.49768,-12.16,-10.95,41.77,0,108.7,13.93,-11.45,353.8
"2009-12-10 00:21:00",1489288,3.261,12.99,18.8,0.759,-4.358,95.52098,-12.1,-10.93,41.72,0,108.7,13.92,-11.39,335.0
"2009-12-10 00:21:30",1489289,5.386,354.2,10.57,1.013,-4.858,95.53434,-12.06,-10.88,41.64,0,108.7,13.91,-11.35,316.2
"2009-12-10 00:22:00",1489290,6.967,347.4,13.01,1.759,-5.158,95.55877,-12,-10.83,41.87,0,108.7,13.91,-11.29,309.4
"2009-12-10 00:22:30",1489291,6.999,340.4,10.28,1.135,-4.674,95.57014,-11.97,-10.78,41.91,0,108.7,13.91,-11.26,302.4
"2009-12-10 00:23:00",1489292,5.26,328,10.7,1.028,-4.642,95.59459,-11.91,-10.74,41.85,0,108.7,13.91,-11.20,290.0
"2009-12-10 00:23:30",1489293,6.879,338.4,7.375,2.053,-4.258,95.60226,-11.89,-10.74,41.85,0,108.7,13.91,-11.18,300.4
"2009-12-10 00:24:00",1489294,7.744,334.6,9.94,1.199,-3.877,95.63238,-11.82,-10.66,42.1,0,108.7,13.91,-11.10,296.6
"2009-12-10 00:24:30",1489295,6.142,315.4,29.37,0.964,-3.671,95.66621,-11.73,-10.65,42.12,0,108.7,13.91,-11.02,277.4
"2009-12-10 00:25:00",1489296,7.803,347.8,7.738,2.32,-3.457,95.70031,-11.64,-10.58,41.82,0,108.7,13.91,-10.93,309.8
"2009-12-10 00:25:30",1489297,9.14,330.2,10.73,1.077,-3.378,95.72277,-11.59,-10.52,41.55,0,108.8,13.91,-10.87,292.2
"2009-12-10 00:26:00",1489298,9.3,329.2,4.466,1.016,-3.247,95.75149,-11.51,-10.46,41.31,0,108.7,13.91,-10.80,291.2
"2009-12-10 00:26:30",1489299,7.359,335.9,4.047,1.344,-2.858,95.77222,-11.46,-10.41,40.96,0,108.7,13.91,-10.75,297.9
"2009-12-10 00:27:00",1489300,5.385,332,8.45,0.96,-2.741,95.79723,-11.4,-10.35,40.65,0,108.7,13.91,-10.68,294.0
"2009-12-10 00:27:30",1489301,6.366,340.7,10.01,0.76,-2.983,95.80491,-11.38,-10.3,40.51,0,108.7,13.92,-10.66,302.7
"2009-12-10 00:28:00",1489302,8.22,346.4,9.46,1.16,-3.125,95.82481,-11.33,-10.25,40.37,0,108.7,13.92,-10.61,308.4
"2009-12-10 00:28:30",1489303,7.827,326.2,4.235,0.927,-3.188,95.83901,-11.29,-10.23,40.3,0,108.7,13.92,-10.58,288.2
"2009-12-10 00:29:00",1489304,10.1,306.1,5.265,1.316,-2.622,95.84016,-11.29,-10.17,40.19,0,108.7,13.92,-10.58,268.1
"2009-12-10 00:29:30",1489305,10.3,319.6,4.938,0.871,-2.904,95.85408,-11.25,-10.14,40.19,0,108.8,13.92,-10.54,281.6
"2009-12-10 00:30:00",1489306,9.34,325.1,4.92,1.02,-2.317,95.87369,-11.2,-10.1,40.04,0,108.7,13.92,-10.49,287.1
"2009-12-10 00:30:30",1489307,10.05,322.1,3.181,0.922,-1.836,95.88904,-11.16,-10.07,40.24,0,108.7,13.92,-10.45,284.1
"2009-12-10 00:31:00",1489308,10.08,327.6,3.678,0.693,-1.535,95.90865,-11.11,-10.02,40.47,0,108.7,13.92,-10.40,289.6
"2009-12-10 00:31:30",1489309,10.55,335.6,3.209,0.967,-1.686,95.93764,-11.04,-9.98,40.47,0,108.7,13.92,-10.33,297.6
"2009-12-10 00:32:00",1489310,10.84,324.6,8.67,0.872,-1.826,95.95412,-11,-9.9,40.35,0,108.7,13.92,-10.28,286.6
"2009-12-10 00:32:30",1489311,10.37,320.4,6.535,1.247,-1.776,95.97515,-10.94,-9.88,40.06,0,108.8,13.92,-10.23,282.4
"2009-12-10 00:33:00",1489312,8.26,318.5,5.593,0.898,-1.628,95.98169,-10.93,-9.83,39.84,0,108.8,13.92,-10.21,280.5
"2009-12-10 00:33:30",1489313,8.54,321.3,4.811,0.902,-1.959,96.00415,-10.87,-9.78,39.65,0,108.7,13.92,-10.16,283.3
"2009-12-10 00:34:00",1489314,8.71,316.5,8.18,0.771,-1.862,96.0121,-10.85,-9.73,39.36,0,108.7,13.92,-10.14,278.5
"2009-12-10 00:34:30",1489315,7.732,322.8,8.77,1.234,-2.205,96.02489,-10.82,-9.71,39.22,0,108.8,13.92,-10.10,284.8
"2009-12-10 00:35:00",1489316,11.25,315.6,3.198,0.95,-1.746,96.04251,-10.77,-9.67,39.12,0,108.8,13.92,-10.06,277.6
"2009-12-10 00:35:30",1489317,11.75,318.9,3.415,1.02,-1.777,96.04366,-10.77,-9.64,39.18,0,108.8,13.92,-10.06,280.9
"2009-12-10 00:36:00",1489318,11.32,316.1,5.388,1.217,-1.649,96.0519,-10.75,-9.61,39.23,0,108.8,13.92,-10.04,278.1
"2009-12-10 00:36:30",1489319,10.04,310.4,5.312,0.939,-1.618,96.07691,-10.69,-9.57,39.16,0,108.8,13.92,-9.97,272.4
"2009-12-10 00:37:00",1489320,9.85,309.8,8.33,0.929,-1.707,96.08657,-10.66,-9.53,39.12,0,108.8,13.92,-9.95,271.8
"2009-12-10 00:37:30",1489321,9.29,313.7,5.564,0.852,-2.097,96.10533,-10.61,-9.51,38.87,0,108.8,13.91,-9.90,275.7
"2009-12-10 00:38:00",1489322,10.82,312,6.455,1.059,-1.839,96.11186,-10.6,-9.45,38.77,0,108.8,13.91,-9.88,274.0
"2009-12-10 00:38:30",1489323,8.9,314.9,4.752,0.907,-1.778,96.11584,-10.59,-9.43,38.74,0,108.7,13.91,-9.87,276.9
"2009-12-10 00:39:00",1489324,8.32,319.5,4.139,0.904,-1.818,96.12579,-10.56,-9.39,38.71,0,108.8,13.91,-9.85,281.5
"2009-12-10 00:39:30",1489325,8.78,316.5,4.843,0.798,-1.996,96.14085,-10.52,-9.38,38.59,0,108.8,13.91,-9.81,278.5
"2009-12-10 00:40:00",1489326,10.4,311.5,4.045,0.912,-1.864,96.14597,-10.51,-9.35,38.51,0,108.8,13.91,-9.80,273.5
"2009-12-10 00:40:30",1489327,9.36,315.2,3.838,1.114,-2.18,96.14597,-10.51,-9.33,38.48,0,108.8,13.91,-9.80,277.2
"2009-12-10 00:41:00",1489328,7.408,317.2,5.109,0.739,-2.436,96.14683,-10.51,-9.32,38.16,0,108.8,13.91,-9.79,279.2
"2009-12-10 00:41:30",1489329,8.15,317.2,4.018,0.747,-2.254,96.15109,-10.5,-9.31,38.07,0,108.8,13.91,-9.78,279.2
"2009-12-10 00:42:00",1489330,8.66,320,5.435,0.586,-1.883,96.15308,-10.49,-9.27,38.06,0,108.8,13.91,-9.78,282.0
"2009-12-10 00:42:30",1489331,8.6,326,3.984,0.83,-1.787,96.15706,-10.48,-9.25,37.89,0,108.8,13.91,-9.77,288.0
"2009-12-10 00:43:00",1489332,8.17,319.9,4.218,0.71,-1.847,96.16216,-10.47,-9.25,37.82,0,108.8,13.91,-9.75,281.9
"2009-12-10 00:43:30",1489333,8.75,322.8,3.747,0.372,-1.791,96.17014,-10.45,-9.24,37.85,0,108.8,13.91,-9.73,284.8
"2009-12-10 00:44:00",1489334,8.4,324.5,2.69,0.713,-1.654,96.17752,-10.43,-9.21,37.73,0,108.8,13.91,-9.71,286.5
"2009-12-10 00:44:30",1489335,8.54,324.9,3.435,0.645,-1.696,96.18008,-10.42,-9.2,37.49,0,108.8,13.91,-9.71,286.9
"2009-12-10 00:45:00",1489336,8.13,325.2,3.235,0.734,-1.666,96.18008,-10.42,-9.2,37.39,0,108.8,13.92,-9.71,287.2
"2009-12-10 00:45:30",1489337,8.29,323.2,3.821,0.513,-1.707,96.18008,-10.42,-9.2,37.28,0,108.8,13.91,-9.71,285.2
"2009-12-10 00:46:00",1489338,8.02,322.7,4.89,0.732,-1.978,96.18008,-10.42,-9.17,37.22,0,108.8,13.91,-9.71,284.7
"2009-12-10 00:46:30",1489339,8.06,328.2,3.171,0.64,-1.754,96.18008,-10.42,-9.17,36.99,0,108.8,13.91,-9.71,290.2
"2009-12-10 00:47:00",1489340,7.846,329.7,3.864,0.475,-1.418,96.18093,-10.42,-9.13,36.8,0,108.8,13.91,-9.71,291.7
"2009-12-10 00:47:30",1489341,8,330.1,2.892,0.63,-1.865,96.18633,-10.41,-9.14,36.62,0,108.8,13.91,-9.69,292.1
"2009-12-10 00:48:00",1489342,8.13,325.8,4.122,0.697,-1.948,96.19429,-10.39,-9.12,36.55,0,108.8,13.91,-9.67,287.8
"2009-12-10 00:48:30",1489343,8.43,327,3.83,0.653,-2.041,96.2031,-10.36,-9.13,36.47,0,108.8,13.92,-9.65,289.0
"2009-12-10 00:49:00",1489344,8.22,328.2,2.714,0.758,-1.865,96.21219,-10.34,-9.11,36.43,0,108.8,13.91,-9.63,290.2
"2009-12-10 00:49:30",1489345,8.34,330.1,3.416,0.703,-1.984,96.21419,-10.34,-9.09,36.39,0,108.8,13.91,-9.62,292.1
"2009-12-10 00:50:00",1489346,8.02,330.6,3.316,0.709,-2.064,96.21419,-10.34,-9.09,36.35,0,108.8,13.92,-9.62,292.6
"2009-12-10 00:50:30",1489347,8.23,336.3,4.372,0.656,-2.054,96.21419,-10.34,-9.09,36.32,0,108.8,13.91,-9.62,298.3
"2009-12-10 00:51:00",1489348,8.65,335.8,3.523,0.618,-1.891,96.21419,-10.34,-9.06,36.29,0,108.8,13.91,-9.62,297.8
"2009-12-10 00:51:30",1489349,8.65,335,3.645,0.594,-2.033,96.21419,-10.34,-9.07,36.29,0,108.8,13.91,-9.62,297.0
"2009-12-10 00:52:00",1489350,8.88,334.9,3.442,0.745,-1.939,96.21419,-10.34,-9.04,36.31,0,108.8,13.91,-9.62,296.9
"2009-12-10 00:52:30",1489351,9.21,336.2,3.716,0.6,-1.867,96.21816,-10.33,-9.04,36.27,0,108.8,13.91,-9.61,298.2
"2009-12-10 00:53:00",1489352,8.9,336,3.551,0.728,-1.81,96.22271,-10.31,-9.03,36.27,0,108.8,13.91,-9.60,298.0
"2009-12-10 00:53:30",1489353,9.74,337.3,3.033,0.716,-1.807,96.2247,-10.31,-9.02,36.27,0,108.8,13.91,-9.59,299.3
"2009-12-10 00:54:00",1489354,9.65,334.6,3.428,0.62,-1.626,96.24318,-10.26,-9,36.33,0,108.8,13.91,-9.55,296.6
"2009-12-10 00:54:30",1489355,9.37,335.5,3.524,0.676,-1.594,96.24829,-10.25,-8.99,36.4,0,108.8,13.91,-9.53,297.5
"2009-12-10 00:55:00",1489356,9.08,336.8,3.822,0.667,-1.529,96.24829,-10.25,-8.98,36.41,0,108.8,13.91,-9.53,298.8
"2009-12-10 00:55:30",1489357,9.42,337.9,4.011,0.494,-1.682,96.24829,-10.25,-8.96,36.65,0,108.8,13.91,-9.53,299.9
"2009-12-10 00:56:00",1489358,9.36,335,3.411,0.618,-1.674,96.24802,-10.25,-8.95,36.86,0,108.8,13.91,-9.53,297.0
"2009-12-10 00:56:30",1489359,9.41,335.6,3.099,0.731,-1.55,96.25228,-10.24,-8.95,36.89,0,108.8,13.91,-9.52,297.6
"2009-12-10 00:57:00",1489360,9.77,333.3,3.609,0.6,-1.484,96.25456,-10.23,-8.94,36.95,0,108.8,13.91,-9.52,295.3
"2009-12-10 00:57:30",1489361,9.92,332.4,3.824,0.388,-1.524,96.26707,-10.2,-8.93,37.1,0,108.7,13.91,-9.49,294.4
"2009-12-10 00:58:00",1489362,9.65,333.2,4.133,0.671,-1.542,96.27956,-10.17,-8.91,37.15,0,108.8,13.91,-9.45,295.2
"2009-12-10 00:58:30",1489363,10.21,332.6,3.914,0.763,-1.437,96.28103,-10.17,-8.9,37.18,0,108.8,13.91,-9.45,294.6
"2009-12-10 00:59:00",1489364,10.02,332.2,3.779,0.538,-1.304,96.2802,-10.17,-8.89,37.22,0,108.8,13.91,-9.45,294.2
"2009-12-10 00:59:30",1489365,10.23,332.5,3.529,0.51,-1.442,96.28103,-10.17,-8.87,37.31,0,108.8,13.91,-9.45,294.5
"2009-12-10 01:00:00",1489366,10.15,330.9,4.098,0.73,-1.332,96.28079,-10.17,-8.86,37.47,0,108.8,13.91,-9.45,292.9
"2009-12-10 01:00:30",1489367,10.52,333.1,3.509,0.718,-1.58,96.28085,-10.17,-8.86,37.59,0,108.8,13.91,-9.45,295.1
"2009-12-10 01:01:00",1489368,10.38,332,3.027,0.757,-1.537,96.28654,-10.15,-8.85,37.84,0,108.8,13.91,-9.44,294.0
"2009-12-10 01:01:30",1489369,10.24,330.4,3.849,0.499,-1.225,96.28821,-10.15,-8.84,38.15,0,108.8,13.91,-9.43,292.4
"2009-12-10 01:02:00",1489370,10.28,330.6,3.444,0.514,-1.424,96.28628,-10.15,-8.83,38.18,0,108.8,13.91,-9.44,292.6
"2009-12-10 01:02:30",1489371,10.21,329.8,3.585,0.534,-1.392,96.29307,-10.14,-8.83,38.06,0,108.8,13.91,-9.42,291.8
"2009-12-10 01:03:00",1489372,10.09,324.9,4.065,0.659,-1.231,96.29732,-10.13,-8.82,37.9,0,108.8,13.91,-9.41,286.9
"2009-12-10 01:03:30",1489373,10.05,323.6,3.069,0.567,-1.279,96.30108,-10.12,-8.82,37.63,0,108.8,13.91,-9.40,285.6
"2009-12-10 01:04:00",1489374,10.2,327.1,3.934,0.66,-1.31,96.30592,-10.1,-8.81,37.66,0,108.8,13.91,-9.39,289.1
"2009-12-10 01:04:30",1489375,10.14,325.5,3.731,0.535,-1.278,96.30765,-10.1,-8.81,37.86,0,108.8,13.91,-9.38,287.5
"2009-12-10 01:05:00",1489376,10.09,329.7,4.053,0.645,-1.312,96.30992,-10.09,-8.81,37.98,0,108.8,13.91,-9.38,291.7
"2009-12-10 01:05:30",1489377,10.57,328.9,4.016,0.581,-1.344,96.30884,-10.1,-8.8,38.18,0,108.8,13.91,-9.38,290.9
"2009-12-10 01:06:00",1489378,10.05,327.1,3.869,0.502,-1.334,96.30857,-10.1,-8.81,38.31,0,108.8,13.91,-9.38,289.1
"2009-12-10 01:06:30",1489379,9.8,324.5,3.944,0.52,-1.221,96.30857,-10.1,-8.79,38.41,0,108.8,13.91,-9.38,286.5
"2009-12-10 01:07:00",1489380,9.75,326.4,3.785,0.504,-1.148,96.30884,-10.1,-8.8,38.6,0,108.8,13.91,-9.38,288.4
"2009-12-10 01:07:30",1489381,9.87,326.5,2.436,0.622,-1.496,96.30747,-10.1,-8.79,38.71,0,108.8,13.91,-9.38,288.5
"2009-12-10 01:08:00",1489382,9.69,325.5,3.965,0.673,-1.489,96.30747,-10.1,-8.79,38.78,0,108.8,13.91,-9.38,287.5
"2009-12-10 01:08:30",1489383,8.66,323.7,3.848,0.446,-1.598,96.30911,-10.1,-8.78,38.76,0,108.8,13.91,-9.38,285.7
"2009-12-10 01:09:00",1489384,8.03,324.9,3.448,0.711,-1.651,96.3083,-10.1,-8.79,38.64,0,108.8,13.91,-9.38,286.9
"2009-12-10 01:09:30",1489385,8.5,328.6,3.665,0.487,-1.734,96.30801,-10.1,-8.79,38.5,0,108.8,13.91,-9.38,290.6
"2009-12-10 01:10:00",1489386,8.46,330.1,4.418,0.549,-1.817,96.30775,-10.1,-8.78,38.54,0,108.8,13.91,-9.38,292.1
"2009-12-10 01:10:30",1489387,8.21,331.2,2.992,0.664,-2.041,96.30775,-10.1,-8.8,38.62,0,108.8,13.91,-9.38,293.2
"2009-12-10 01:11:00",1489388,7.575,330.3,4.923,0.619,-1.893,96.3052,-10.11,-8.78,38.69,0,108.8,13.91,-9.39,292.3
"2009-12-10 01:11:30",1489389,6.657,327.1,5.686,0.664,-2.526,96.29955,-10.12,-8.79,38.63,0,108.8,13.91,-9.40,289.1
"2009-12-10 01:12:00",1489390,6.17,326.9,3.767,0.627,-2.734,96.28589,-10.15,-8.79,38.13,0,108.8,13.9,-9.44,288.9
"2009-12-10 01:12:30",1489391,5.468,324.3,3.955,0.6,-2.794,96.27877,-10.17,-8.81,37.95,0,108.8,13.91,-9.46,286.3
"2009-12-10 01:13:00",1489392,4.599,329.9,14.98,0.742,-3.535,96.26858,-10.2,-8.84,37.74,0,108.8,13.9,-9.48,291.9
"2009-12-10 01:13:30",1489393,3.698,310.2,32.18,0.61,-4.382,96.23839,-10.28,-8.89,37.3,0,108.8,13.91,-9.56,272.2
"2009-12-10 01:14:00",1489394,3.649,41.51,29.65,1.191,-5.704,96.21177,-10.34,-8.93,37.29,0,108.8,13.9,-9.63,3.5
"2009-12-10 01:14:30",1489395,4.494,68,21.75,0.654,-6.01,96.20754,-10.35,-8.95,37.34,0,108.8,13.91,-9.64,30.0
"2009-12-10 01:15:00",1489396,4.187,80.1,30.16,0.736,-5.603,96.20352,-10.36,-8.99,37.3,0,108.8,13.91,-9.65,42.1
"2009-12-10 01:15:30",1489397,3.522,46.5,20.89,0.892,-6.995,96.19532,-10.38,-9.03,37.21,0,108.8,13.9,-9.67,8.5
"2009-12-10 01:16:00",1489398,2.452,66.21,14.36,1.221,-8.71,96.17143,-10.45,-9.14,37.05,0,108.8,13.91,-9.73,28.2
"2009-12-10 01:16:30",1489399,2.167,57.98,20.95,1.132,-9.25,96.1674,-10.46,-9.28,36.94,0,108.8,13.91,-9.74,20.0
"2009-12-10 01:17:00",1489400,3.014,30.37,17.74,1.086,-6.762,96.14297,-10.52,-9.12,37.16,0,108.8,13.92,-9.80,352.4
"2009-12-10 01:17:30",1489401,3.923,353.8,18.48,0.859,-4.917,96.13301,-10.54,-9.12,37.37,0,108.8,13.92,-9.83,315.8
"2009-12-10 01:18:00",1489402,3.813,343.9,17.38,1.028,-4.824,96.10799,-10.61,-9.13,37.6,0,108.8,13.93,-9.89,305.9
"2009-12-10 01:18:30",1489403,3.002,351,19.33,0.752,-4.758,96.09888,-10.63,-9.19,37.71,0,108.8,13.93,-9.92,313.0
"2009-12-10 01:19:00",1489404,3.427,353.5,11.65,0.997,-6.356,96.08179,-10.67,-9.28,37.81,0,108.8,13.93,-9.96,315.5
"2009-12-10 01:19:30",1489405,3.329,344.4,4.924,1.081,-8.97,96.06956,-10.7,-9.37,37.88,0,108.8,13.93,-9.99,306.4
"2009-12-10 01:20:00",1489406,3.497,348.1,14.98,1.203,-7.74,96.042,-10.77,-9.44,38.03,0,108.8,13.93,-10.06,310.1
"2009-12-10 01:20:30",1489407,3.68,355.5,10.46,0.927,-6.283,96.03432,-10.79,-9.4,38.33,0,108.8,13.93,-10.08,317.5
"2009-12-10 01:21:00",1489408,3.888,0.968,13.8,0.948,-5.718,96.01132,-10.85,-9.41,38.55,0,108.8,13.93,-10.14,323.0
"2009-12-10 01:21:30",1489409,5.501,347.6,7.498,0.696,-4.941,95.9988,-10.88,-9.41,38.95,0,108.8,13.93,-10.17,309.6
"2009-12-10 01:22:00",1489410,5.456,340.4,5.17,0.743,-4.131,95.97462,-10.95,-9.46,39.58,0,108.8,13.93,-10.23,302.4
"2009-12-10 01:22:30",1489411,4.489,351.9,15.28,0.961,-4.364,95.96835,-10.96,-9.49,40.11,0,108.8,13.93,-10.25,313.9
"2009-12-10 01:23:00",1489412,4.736,350.8,12.22,0.933,-4.557,95.94932,-11.01,-9.53,40.36,0,108.8,13.93,-10.30,312.8
"2009-12-10 01:23:30",1489413,4.527,343.9,6.178,0.641,-4.816,95.93847,-11.04,-9.56,40.54,0,108.8,13.93,-10.32,305.9
"2009-12-10 01:24:00",1489414,3.999,353.7,8.78,0.636,-5.176,95.9364,-11.04,-9.61,40.54,0,108.8,13.93,-10.33,315.7
"2009-12-10 01:24:30",1489415,3.427,0.195,16.99,1.223,-7.479,95.91283,-11.1,-9.77,40.29,0,108.8,13.93,-10.39,322.2
"2009-12-10 01:25:00",1489416,1.585,357.2,13.89,1.146,-9.1,95.90423,-11.12,-9.8,40.25,0,108.8,13.93,-10.41,319.2
"2009-12-10 01:25:30",1489417,3.968,0.528,11.67,1.135,-7.405,95.9045,-11.12,-9.86,40.37,0,108.8,13.93,-10.41,322.5
"2009-12-10 01:26:00",1489418,5.144,346.8,5.014,0.806,-5.324,95.89085,-11.16,-9.73,40.71,0,108.8,13.93,-10.45,308.8
"2009-12-10 01:26:30",1489419,5.683,347.2,5.329,0.69,-4.444,95.87832,-11.19,-9.73,40.95,0,108.8,13.93,-10.48,309.2
"2009-12-10 01:27:00",1489420,5.496,349.9,7.869,0.644,-3.959,95.8726,-11.2,-9.76,41.1,0,108.8,13.94,-10.49,311.9
"2009-12-10 01:27:30",1489421,5.163,349.8,5.663,0.711,-4.094,95.87093,-11.21,-9.77,41.26,0,108.8,13.93,-10.50,311.8
"2009-12-10 01:28:00",1489422,4.944,347.6,5.073,0.642,-4.22,95.85894,-11.24,-9.8,41.31,0,108.8,13.93,-10.53,309.6
"2009-12-10 01:28:30",1489423,5.157,347.1,8.17,0.83,-4.434,95.84391,-11.28,-9.83,41.44,0,108.8,13.93,-10.57,309.1
"2009-12-10 01:29:00",1489424,5.31,348.7,6.012,0.544,-4.539,95.84244,-11.28,-9.84,41.61,0,108.8,13.93,-10.57,310.7
"2009-12-10 01:29:30",1489425,5.359,345.9,4.588,0.753,-4.893,95.83847,-11.29,-9.87,41.82,0,108.8,13.93,-10.58,307.9
"2009-12-10 01:30:00",1489426,5.552,345.9,5.049,0.548,-5.102,95.83901,-11.29,-9.91,42.06,0,108.8,13.92,-10.58,307.9
"2009-12-10 01:30:30",1489427,5.247,355.7,7.038,0.652,-5.296,95.8382,-11.29,-9.89,42.16,0,108.8,13.93,-10.58,317.7
"2009-12-10 01:31:00",1489428,4.628,9.12,9.44,0.951,-5.308,95.83875,-11.29,-9.91,42.18,0,108.8,13.93,-10.58,331.1
"2009-12-10 01:31:30",1489429,4.079,25.98,6.023,0.827,-5.291,95.83901,-11.29,-9.93,42.1,0,108.8,13.93,-10.58,348.0
"2009-12-10 01:32:00",1489430,3.564,2.479,12.42,0.973,-7.067,95.83901,-11.29,-10.03,42.03,0,108.8,13.93,-10.58,324.5
"2009-12-10 01:32:30",1489431,4.57,358.9,12.03,1.263,-7.656,95.83703,-11.3,-10.15,42.03,0,108.8,13.93,-10.58,320.9
"2009-12-10 01:33:00",1489432,4.831,0.906,9.03,1.071,-4.944,95.82936,-11.31,-9.96,42.44,0,108.8,13.93,-10.60,322.9
"2009-12-10 01:33:30",1489433,5.776,356.9,4.554,0.77,-4.35,95.8231,-11.33,-9.93,42.62,0,108.8,13.94,-10.62,318.9
"2009-12-10 01:34:00",1489434,5.913,359.9,5.016,0.663,-4.46,95.8214,-11.33,-9.97,42.7,0,108.8,13.94,-10.62,321.9
"2009-12-10 01:34:30",1489435,5.494,358.2,6.465,0.796,-4.244,95.81884,-11.34,-9.95,42.82,0,108.8,13.94,-10.63,320.2
"2009-12-10 01:35:00",1489436,5.463,355,4.1,0.598,-4.53,95.82198,-11.33,-9.97,42.92,0,108.8,13.94,-10.62,317.0
"2009-12-10 01:35:30",1489437,5.695,356.8,5.524,0.785,-4.39,95.82197,-11.33,-9.99,42.96,0,108.8,13.94,-10.62,318.8
"2009-12-10 01:36:00",1489438,6.235,356.2,5.034,0.6,-4.577,95.82652,-11.32,-9.98,43.07,0,108.8,13.94,-10.61,318.2
"2009-12-10 01:36:30",1489439,6.325,357,4.259,0.726,-4.432,95.83418,-11.3,-9.99,43.13,0,108.8,13.93,-10.59,319.0
"2009-12-10 01:37:00",1489440,6.678,357.5,3.715,0.755,-4.227,95.83788,-11.29,-9.99,43.18,0,108.8,13.93,-10.58,319.5
"2009-12-10 01:37:30",1489441,6.328,359.3,3.313,0.743,-4.137,95.83901,-11.29,-9.98,43.2,0,108.7,13.93,-10.58,321.3
"2009-12-10 01:38:00",1489442,5.909,0.621,5.669,1.007,-4.282,95.83901,-11.29,-9.98,43.18,0,108.8,13.93,-10.58,322.6
"2009-12-10 01:38:30",1489443,5.833,0.985,3.936,0.849,-4.367,95.83901,-11.29,-9.97,43.08,0,108.8,13.93,-10.58,323.0
"2009-12-10 01:39:00",1489444,6.433,359.3,6.124,0.928,-3.9,95.83901,-11.29,-9.97,43.07,0,108.8,13.93,-10.58,321.3
"2009-12-10 01:39:30",1489445,6.062,356.5,6.545,0.577,-4.073,95.83987,-11.29,-9.95,43.16,0,108.8,13.93,-10.58,318.5
"2009-12-10 01:40:00",1489446,5.588,0.036,7.741,0.973,-4.086,95.84583,-11.27,-9.92,43.18,0,108.8,13.93,-10.56,322.0
"2009-12-10 01:40:30",1489447,6.046,357.6,6.434,0.916,-3.997,95.85323,-11.25,-9.95,43.2,0,108.8,13.93,-10.54,319.6
"2009-12-10 01:41:00",1489448,6.202,357.2,3.762,0.646,-4.101,95.8663,-11.22,-9.92,43.24,0,108.8,13.93,-10.51,319.2
"2009-12-10 01:41:30",1489449,5.979,358.9,3.673,0.859,-3.979,95.87312,-11.2,-9.92,43.26,0,108.8,13.93,-10.49,320.9
"2009-12-10 01:42:00",1489450,5.676,358.2,5.651,0.87,-4.14,95.87312,-11.2,-9.92,43.28,0,108.8,13.93,-10.49,320.2
"2009-12-10 01:42:30",1489451,5.813,358.9,3.944,0.751,-4.262,95.87994,-11.19,-9.89,43.3,0,108.8,13.93,-10.47,320.9
"2009-12-10 01:43:00",1489452,6.04,357.7,5.439,1.042,-4.339,95.88535,-11.17,-9.88,43.26,0,108.8,13.93,-10.46,319.7
"2009-12-10 01:43:30",1489453,5.44,357.7,7.409,0.871,-4.287,95.89159,-11.16,-9.87,43.2,0,108.8,13.93,-10.44,319.7
"2009-12-10 01:44:00",1489454,5.616,354.8,7.292,1.022,-4.584,95.90268,-11.13,-9.85,43.1,0,108.8,13.93,-10.42,316.8
"2009-12-10 01:44:30",1489455,6.215,353.6,3.569,0.742,-4.468,95.90723,-11.12,-9.84,43.03,0,108.8,13.93,-10.40,315.6